NOZ7256 ESSA-EPLL

Flight info

Callsign NOZ7256
Flight time 1h 39m
Altitude 35000
Route INWIQ M996 APZER DCT ARMOD DCT PENOR N133 ADOXO
Aircraft MD82/M-SDFGIRWY/C

Departure

Time 2026-04-24 23:29
Airport Stockholm-Arlanda Airport (ESSA)

Arrival

Time 2026-04-25 01:08
Airport Łódź Władysław Reymont Airport (EPLL)
Time Latitude Longitude Altitude Speed Heading
2026-04-24 22:59 59.65336 17.93187 113 ft 0 kts 250°
2026-04-24 23:19 59.65337 17.93191 113 ft 1 kts 250°
2026-04-24 23:19 59.65342 17.93218 113 ft 2 kts 250°
2026-04-24 23:20 59.65344 17.93247 114 ft 2 kts 279°
2026-04-24 23:20 59.65339 17.93274 114 ft 2 kts 305°
2026-04-24 23:20 59.65328 17.93293 115 ft 2 kts 333°
2026-04-24 23:20 59.65321 17.93299 115 ft 0 kts 347°
2026-04-24 23:21 59.65336 17.93289 115 ft 5 kts 342°
2026-04-24 23:21 59.65358 17.93276 115 ft 4 kts 346°
2026-04-24 23:21 59.65396 17.93257 114 ft 4 kts 345°
2026-04-24 23:21 59.65408 17.93250 114 ft 0 kts 345°
2026-04-24 23:24 59.65414 17.93247 114 ft 3 kts 346°
2026-04-24 23:24 59.65468 17.93203 113 ft 14 kts 342°
2026-04-24 23:24 59.65541 17.93355 114 ft 23 kts 75°
2026-04-24 23:25 59.65580 17.93674 119 ft 22 kts 77°
2026-04-24 23:25 59.65612 17.93947 121 ft 18 kts 77°
2026-04-24 23:25 59.65640 17.94150 126 ft 12 kts 75°
2026-04-24 23:25 59.65662 17.94318 129 ft 14 kts 75°
2026-04-24 23:26 59.65692 17.94547 133 ft 20 kts 76°
2026-04-24 23:26 59.65731 17.94857 137 ft 26 kts 76°
2026-04-24 23:26 59.65712 17.95146 138 ft 20 kts 152°
2026-04-24 23:26 59.65562 17.95236 141 ft 26 kts 166°
2026-04-24 23:27 59.65357 17.95341 140 ft 32 kts 166°
2026-04-24 23:27 59.65136 17.95464 125 ft 34 kts 165°
2026-04-24 23:27 59.64949 17.95681 116 ft 31 kts 109°
2026-04-24 23:27 59.64841 17.95869 117 ft 20 kts 185°
2026-04-24 23:28 59.64800 17.95857 116 ft 0 kts 189°
2026-04-24 23:28 59.64759 17.95844 117 ft 31 kts 189°
2026-04-24 23:28 59.64262 17.95661 119 ft 112 kts 190°
2026-04-24 23:28 59.63272 17.95295 267 ft 165 kts 193°
2026-04-24 23:29 59.62180 17.94875 1142 ft 166 kts 192°
2026-04-24 23:29 59.61018 17.94454 1887 ft 179 kts 192°
2026-04-24 23:29 59.59774 17.94002 2687 ft 187 kts 192°
2026-04-24 23:29 59.58516 17.93918 3637 ft 182 kts 173°
2026-04-24 23:30 59.57256 17.93712 4043 ft 196 kts 204°
2026-04-24 23:30 59.56083 17.92128 4163 ft 219 kts 232°
2026-04-24 23:30 59.55322 17.89434 4371 ft 237 kts 251°
2026-04-24 23:30 59.54617 17.86358 4550 ft 259 kts 249°
2026-04-24 23:31 59.53833 17.83089 5114 ft 263 kts 248°
2026-04-24 23:31 59.53037 17.79896 5706 ft 264 kts 247°
2026-04-24 23:31 59.52202 17.76648 6298 ft 266 kts 246°
2026-04-24 23:31 59.51356 17.73446 6902 ft 267 kts 246°
2026-04-24 23:32 59.50495 17.70241 7464 ft 269 kts 243°
2026-04-24 23:32 59.49192 17.67492 7905 ft 286 kts 220°
2026-04-24 23:32 59.47399 17.65675 8706 ft 291 kts 209°
2026-04-24 23:32 59.45623 17.64052 9691 ft 287 kts 209°
2026-04-24 23:33 59.43750 17.62347 9965 ft 310 kts 209°
2026-04-24 23:33 59.41723 17.60503 10090 ft 335 kts 209°
2026-04-24 23:33 59.39608 17.58496 10869 ft 337 kts 212°
2026-04-24 23:33 59.37513 17.56397 11590 ft 341 kts 212°
2026-04-24 23:34 59.35429 17.54310 12375 ft 343 kts 212°
2026-04-24 23:34 59.33275 17.52156 13058 ft 348 kts 212°
2026-04-24 23:34 59.31144 17.50030 13804 ft 349 kts 212°
2026-04-24 23:34 59.28987 17.47877 14453 ft 353 kts 212°
2026-04-24 23:35 59.26713 17.45976 15049 ft 363 kts 199°
2026-04-24 23:35 59.24180 17.45312 15651 ft 375 kts 185°
2026-04-24 23:35 59.21570 17.45765 16239 ft 381 kts 180°
2026-04-24 23:35 59.18958 17.46248 16781 ft 385 kts 180°
2026-04-24 23:36 59.16280 17.46722 17318 ft 389 kts 180°
2026-04-24 23:36 59.13579 17.47179 17911 ft 391 kts 180°
2026-04-24 23:36 59.10886 17.47617 18397 ft 395 kts 180°
2026-04-24 23:36 59.08154 17.48047 18931 ft 398 kts 180°
2026-04-24 23:37 59.05390 17.48475 19472 ft 400 kts 181°
2026-04-24 23:37 59.02642 17.48888 19952 ft 404 kts 181°
2026-04-24 23:37 58.97010 17.49741 20885 ft 412 kts 180°
2026-04-24 23:38 58.94147 17.50342 21344 ft 417 kts 175°
2026-04-24 23:38 58.91312 17.51639 21855 ft 423 kts 168°
2026-04-24 23:38 58.88550 17.53562 22264 ft 428 kts 164°
2026-04-24 23:38 58.85746 17.55569 22706 ft 431 kts 164°
2026-04-24 23:39 58.82904 17.57141 23109 ft 428 kts 175°
2026-04-24 23:39 58.79969 17.57695 23557 ft 423 kts 185°
2026-04-24 23:39 58.77050 17.57220 23941 ft 421 kts 193°
2026-04-24 23:39 58.74156 17.56569 24339 ft 424 kts 192°
2026-04-24 23:40 58.71250 17.55944 24665 ft 428 kts 192°
2026-04-24 23:40 58.68277 17.55338 25093 ft 430 kts 192°
2026-04-24 23:40 58.65316 17.54754 25404 ft 434 kts 192°
2026-04-24 23:40 58.62312 17.54180 25789 ft 437 kts 192°
2026-04-24 23:41 58.59288 17.53617 26132 ft 440 kts 192°
2026-04-24 23:41 58.56210 17.53052 26444 ft 444 kts 192°
2026-04-24 23:41 58.53156 17.52497 26950 ft 442 kts 192°
2026-04-24 23:41 58.50106 17.51948 27346 ft 443 kts 192°
2026-04-24 23:42 58.47074 17.51409 27807 ft 442 kts 192°
2026-04-24 23:42 58.44025 17.50864 28164 ft 444 kts 192°
2026-04-24 23:42 58.40952 17.50322 28638 ft 442 kts 192°
2026-04-24 23:42 58.37927 17.49785 28973 ft 444 kts 192°
2026-04-24 23:43 58.34884 17.49249 29413 ft 442 kts 192°
2026-04-24 23:43 58.31823 17.48712 29783 ft 443 kts 193°
2026-04-24 23:43 58.28741 17.48167 30125 ft 444 kts 192°
2026-04-24 23:43 58.25678 17.47628 30555 ft 442 kts 193°
2026-04-24 23:44 58.22639 17.47094 30892 ft 442 kts 193°
2026-04-24 23:44 58.19568 17.46552 31214 ft 443 kts 193°
2026-04-24 23:44 58.16539 17.46016 31622 ft 440 kts 193°
2026-04-24 23:44 58.13498 17.45483 31975 ft 439 kts 193°
2026-04-24 23:45 58.10434 17.44944 32222 ft 440 kts 192°
2026-04-24 23:45 58.07407 17.44411 32573 ft 439 kts 193°
2026-04-24 23:45 58.04348 17.43872 32873 ft 438 kts 192°
2026-04-24 23:45 58.01339 17.43343 33122 ft 439 kts 192°
2026-04-24 23:46 57.98259 17.42803 33413 ft 438 kts 192°
2026-04-24 23:46 57.95226 17.42274 33768 ft 436 kts 192°
2026-04-24 23:46 57.92255 17.41766 33997 ft 436 kts 192°
2026-04-24 23:46 57.89215 17.41244 34159 ft 437 kts 192°
2026-04-24 23:47 57.86193 17.40732 34451 ft 435 kts 192°
2026-04-24 23:47 57.83186 17.40219 34596 ft 436 kts 192°
2026-04-24 23:47 57.80159 17.39706 34745 ft 437 kts 192°
2026-04-24 23:47 57.77133 17.39191 34750 ft 445 kts 192°
2026-04-24 23:48 57.70885 17.38129 34755 ft 459 kts 192°
2026-04-24 23:48 57.64467 17.37042 34753 ft 469 kts 192°
2026-04-24 23:49 57.58064 17.35960 34747 ft 462 kts 192°
2026-04-24 23:49 57.51707 17.34884 34750 ft 460 kts 191°
2026-04-24 23:50 57.45289 17.34010 34770 ft 470 kts 189°
2026-04-24 23:50 57.38686 17.33290 34770 ft 482 kts 188°
2026-04-24 23:51 57.31954 17.32585 34779 ft 490 kts 188°
2026-04-24 23:51 57.25165 17.31888 34787 ft 494 kts 188°
2026-04-24 23:52 57.18344 17.31202 34781 ft 490 kts 188°
2026-04-24 23:52 57.11583 17.30522 34783 ft 489 kts 189°
2026-04-24 23:53 57.04785 17.29839 34788 ft 491 kts 188°
2026-04-24 23:53 56.98014 17.29161 34786 ft 490 kts 189°
2026-04-24 23:54 56.91210 17.28480 34795 ft 493 kts 189°
2026-04-24 23:54 56.84392 17.27801 34778 ft 490 kts 189°
2026-04-24 23:55 56.77600 17.27120 34779 ft 491 kts 189°
2026-04-24 23:55 56.70793 17.26434 34775 ft 493 kts 189°
2026-04-24 23:56 56.63959 17.25756 34778 ft 492 kts 189°
2026-04-24 23:56 56.57133 17.25097 34786 ft 493 kts 189°
2026-04-24 23:57 56.50346 17.24440 34790 ft 492 kts 189°
2026-04-24 23:57 56.43508 17.23784 34785 ft 492 kts 189°
2026-04-24 23:58 56.36670 17.23127 34789 ft 494 kts 189°
2026-04-24 23:58 56.29841 17.22470 34782 ft 495 kts 189°
2026-04-24 23:59 56.22992 17.21818 34791 ft 494 kts 189°
2026-04-24 23:59 56.16143 17.21160 34808 ft 495 kts 189°
2026-04-25 00:00 56.09255 17.20499 34806 ft 496 kts 189°
2026-04-25 00:00 56.02385 17.19840 34811 ft 495 kts 189°
2026-04-25 00:01 55.95531 17.19185 34811 ft 495 kts 189°
2026-04-25 00:01 55.88701 17.18533 34814 ft 496 kts 189°
2026-04-25 00:02 55.81817 17.17875 34815 ft 494 kts 190°
2026-04-25 00:02 55.74972 17.17232 34816 ft 494 kts 189°
2026-04-25 00:03 55.68141 17.16586 34815 ft 493 kts 189°
2026-04-25 00:03 55.64716 17.16736 34809 ft 502 kts 178°
2026-04-25 00:03 55.61265 17.17975 34834 ft 510 kts 168°
2026-04-25 00:04 55.57975 17.20267 34834 ft 517 kts 157°
2026-04-25 00:04 55.54752 17.23061 34831 ft 518 kts 158°
2026-04-25 00:04 55.48300 17.28473 34829 ft 516 kts 159°
2026-04-25 00:05 55.41779 17.33799 34826 ft 516 kts 159°
2026-04-25 00:05 55.35267 17.39058 34836 ft 516 kts 159°
2026-04-25 00:06 55.28766 17.44280 34841 ft 516 kts 159°
2026-04-25 00:06 55.22284 17.49471 34837 ft 516 kts 159°
2026-04-25 00:07 55.15718 17.54561 34841 ft 516 kts 160°
2026-04-25 00:07 55.09201 17.59550 34848 ft 515 kts 160°
2026-04-25 00:08 55.02683 17.64545 34845 ft 516 kts 160°
2026-04-25 00:08 54.96115 17.69582 34845 ft 516 kts 160°
2026-04-25 00:09 54.89590 17.74725 34849 ft 515 kts 160°
2026-04-25 00:09 54.83100 17.79848 34844 ft 515 kts 159°
2026-04-25 00:10 54.76575 17.84954 34847 ft 514 kts 160°
2026-04-25 00:10 54.70035 17.89996 34850 ft 515 kts 160°
2026-04-25 00:11 54.63510 17.95018 34854 ft 515 kts 160°
2026-04-25 00:11 54.56972 18.00043 34869 ft 515 kts 160°
2026-04-25 00:12 54.50449 18.05059 34861 ft 515 kts 160°
2026-04-25 00:12 54.43947 18.10060 34863 ft 515 kts 160°
2026-04-25 00:13 54.37379 18.15108 34864 ft 515 kts 160°
2026-04-25 00:13 54.30885 18.20105 34864 ft 515 kts 160°
2026-04-25 00:14 54.24343 18.24998 34875 ft 515 kts 160°
2026-04-25 00:14 54.17797 18.29850 34883 ft 514 kts 160°
2026-04-25 00:15 54.11260 18.34692 34879 ft 514 kts 160°
2026-04-25 00:15 54.04687 18.39552 34875 ft 515 kts 160°
2026-04-25 00:16 53.98141 18.44398 34884 ft 515 kts 160°
2026-04-25 00:16 53.91611 18.49231 34886 ft 515 kts 160°
2026-04-25 00:17 53.85028 18.54104 34881 ft 515 kts 160°
2026-04-25 00:17 53.78496 18.58940 34887 ft 514 kts 160°
2026-04-25 00:18 53.71953 18.63738 34887 ft 514 kts 160°
2026-04-25 00:18 53.65435 18.68469 34888 ft 512 kts 161°
2026-04-25 00:19 53.58897 18.73215 34889 ft 512 kts 161°
2026-04-25 00:19 53.52349 18.77968 34893 ft 513 kts 162°
2026-04-25 00:20 53.45659 18.81817 34907 ft 507 kts 168°
2026-04-25 00:20 53.38933 18.85216 34904 ft 507 kts 168°
2026-04-25 00:21 53.32182 18.88693 34905 ft 506 kts 168°
2026-04-25 00:21 53.25485 18.92169 34908 ft 508 kts 167°
2026-04-25 00:22 53.18750 18.95685 34910 ft 507 kts 167°
2026-04-25 00:22 53.12033 18.99176 34916 ft 506 kts 167°
2026-04-25 00:23 53.05325 19.02634 34920 ft 505 kts 167°
2026-04-25 00:23 52.98656 19.06047 34919 ft 505 kts 167°
2026-04-25 00:24 52.91934 19.09486 34928 ft 506 kts 167°
2026-04-25 00:24 52.85214 19.12924 34912 ft 506 kts 167°
2026-04-25 00:25 52.78533 19.16341 34916 ft 505 kts 167°
2026-04-25 00:25 52.71830 19.19772 34928 ft 504 kts 167°
2026-04-25 00:26 52.65199 19.23165 34927 ft 503 kts 167°
2026-04-25 00:26 52.58517 19.26588 34926 ft 504 kts 167°
2026-04-25 00:27 52.51875 19.29933 34930 ft 503 kts 167°
2026-04-25 00:27 52.45185 19.33275 34938 ft 503 kts 167°
2026-04-25 00:28 52.38556 19.36593 34940 ft 502 kts 167°
2026-04-25 00:28 52.31876 19.39938 34950 ft 501 kts 167°
2026-04-25 00:29 52.28554 19.41598 34617 ft 503 kts 167°
2026-04-25 00:29 52.25273 19.43213 33567 ft 498 kts 171°
2026-04-25 00:29 52.21962 19.43747 33358 ft 460 kts 190°
2026-04-25 00:29 52.18959 19.42793 33329 ft 423 kts 208°
2026-04-25 00:30 52.16509 19.40656 33277 ft 388 kts 225°
2026-04-25 00:30 52.14553 19.37761 33241 ft 376 kts 237°
2026-04-25 00:30 52.11896 19.30440 33231 ft 381 kts 257°
2026-04-25 00:31 52.11280 19.26255 33086 ft 382 kts 268°
2026-04-25 00:31 52.11200 19.21939 32602 ft 396 kts 278°
2026-04-25 00:31 52.11696 19.17450 32126 ft 411 kts 289°
2026-04-25 00:31 52.12798 19.13153 31643 ft 416 kts 300°
2026-04-25 00:32 52.14476 19.09329 31169 ft 410 kts 312°
2026-04-25 00:32 52.16584 19.06287 30687 ft 405 kts 323°
2026-04-25 00:32 52.19009 19.04103 30209 ft 402 kts 334°
2026-04-25 00:32 52.21663 19.02825 29685 ft 403 kts 346°
2026-04-25 00:33 52.24405 19.02067 29191 ft 398 kts 345°
2026-04-25 00:33 52.27120 19.01256 28653 ft 397 kts 344°
2026-04-25 00:33 52.29818 19.00404 28142 ft 394 kts 344°
2026-04-25 00:33 52.32465 18.99539 27615 ft 391 kts 344°
2026-04-25 00:34 52.35108 18.98678 27088 ft 389 kts 347°
2026-04-25 00:34 52.37835 18.98578 26555 ft 394 kts 360°
2026-04-25 00:34 52.40521 18.99476 26031 ft 401 kts 12°
2026-04-25 00:34 52.43067 19.01384 25519 ft 408 kts 25°
2026-04-25 00:35 52.45300 19.04209 25006 ft 417 kts 38°
2026-04-25 00:35 52.47138 19.07909 24508 ft 425 kts 51°
2026-04-25 00:35 52.48423 19.12300 24012 ft 432 kts 65°
2026-04-25 00:35 52.49046 19.17098 23526 ft 439 kts 79°
2026-04-25 00:36 52.48954 19.22110 23045 ft 445 kts 95°
2026-04-25 00:36 52.48116 19.27002 22568 ft 448 kts 110°
2026-04-25 00:36 52.46590 19.31398 22092 ft 449 kts 126°
2026-04-25 00:36 52.44445 19.35076 21616 ft 447 kts 142°
2026-04-25 00:37 52.41858 19.37761 21149 ft 441 kts 158°
2026-04-25 00:37 52.38970 19.39349 20672 ft 431 kts 173°
2026-04-25 00:37 52.36065 19.40100 20207 ft 427 kts 174°
2026-04-25 00:37 52.33145 19.40907 19716 ft 424 kts 174°
2026-04-25 00:38 52.30244 19.41765 19233 ft 421 kts 173°
2026-04-25 00:38 52.27378 19.42656 18736 ft 418 kts 173°
2026-04-25 00:38 52.24553 19.43449 18231 ft 410 kts 182°
2026-04-25 00:38 52.21817 19.42986 17765 ft 392 kts 202°
2026-04-25 00:39 52.19388 19.41137 17293 ft 374 kts 222°
2026-04-25 00:39 52.17626 19.38264 16840 ft 357 kts 242°
2026-04-25 00:39 52.16581 19.34720 16388 ft 345 kts 258°
2026-04-25 00:39 52.16201 19.30916 15905 ft 336 kts 274°
2026-04-25 00:40 52.16476 19.27234 15437 ft 329 kts 288°
2026-04-25 00:40 52.17352 19.23829 14960 ft 323 kts 302°
2026-04-25 00:40 52.18723 19.21049 14491 ft 320 kts 316°
2026-04-25 00:40 52.20531 19.18959 14018 ft 320 kts 330°
2026-04-25 00:41 52.22619 19.17714 13543 ft 322 kts 344°
2026-04-25 00:41 52.24833 19.17302 13076 ft 323 kts 351°
2026-04-25 00:41 52.27066 19.16955 12585 ft 321 kts 351°
2026-04-25 00:41 52.29255 19.16598 12100 ft 320 kts 350°
2026-04-25 00:42 52.31467 19.16193 11606 ft 317 kts 350°
2026-04-25 00:42 52.33631 19.15788 11118 ft 315 kts 353°
2026-04-25 00:42 52.35812 19.16100 10615 ft 319 kts
2026-04-25 00:42 52.37864 19.17485 10131 ft 324 kts 26°
2026-04-25 00:43 52.39571 19.19860 9928 ft 325 kts 45°
2026-04-25 00:43 52.40788 19.22982 9958 ft 335 kts 59°
2026-04-25 00:43 52.41558 19.26644 9939 ft 348 kts 75°
2026-04-25 00:43 52.41634 19.30606 9943 ft 358 kts 94°
2026-04-25 00:44 52.40896 19.34517 9949 ft 363 kts 115°
2026-04-25 00:44 52.39383 19.37854 9949 ft 366 kts 136°
2026-04-25 00:44 52.37310 19.40137 9945 ft 365 kts 158°
2026-04-25 00:44 52.34876 19.41177 9957 ft 360 kts 176°
2026-04-25 00:45 52.32415 19.41706 9950 ft 361 kts 174°
2026-04-25 00:45 52.29915 19.42324 9944 ft 361 kts 173°
2026-04-25 00:45 52.27439 19.42998 9938 ft 361 kts 172°
2026-04-25 00:45 52.24979 19.43590 9923 ft 358 kts 182°
2026-04-25 00:46 52.22580 19.42959 9957 ft 348 kts 205°
2026-04-25 00:46 52.20522 19.41054 9951 ft 339 kts 225°
2026-04-25 00:46 52.18168 19.34850 9939 ft 319 kts 262°
2026-04-25 00:47 52.18026 19.31292 9941 ft 312 kts 279°
2026-04-25 00:47 52.18524 19.27925 9949 ft 308 kts 294°
2026-04-25 00:47 52.19585 19.24943 9945 ft 305 kts 310°
2026-04-25 00:47 52.21138 19.22613 9945 ft 304 kts 325°
2026-04-25 00:48 52.23046 19.21104 9943 ft 306 kts 341°
2026-04-25 00:48 52.25123 19.20491 9948 ft 307 kts 349°
2026-04-25 00:48 52.27237 19.19924 9940 ft 307 kts 348°
2026-04-25 00:48 52.29343 19.19335 9934 ft 307 kts 347°
2026-04-25 00:49 52.31443 19.18720 9929 ft 308 kts 347°
2026-04-25 00:49 52.33550 19.18048 9932 ft 308 kts 347°
2026-04-25 00:49 52.35695 19.18054 9939 ft 314 kts
2026-04-25 00:49 52.37782 19.19231 9940 ft 324 kts 24°
2026-04-25 00:50 52.39560 19.21459 9943 ft 333 kts 42°
2026-04-25 00:50 52.40851 19.24666 9945 ft 344 kts 62°
2026-04-25 00:50 52.41436 19.28515 9947 ft 353 kts 82°
2026-04-25 00:50 52.41186 19.32514 9952 ft 360 kts 103°
2026-04-25 00:51 52.40120 19.36170 9953 ft 365 kts 124°
2026-04-25 00:51 52.38316 19.39065 9952 ft 366 kts 147°
2026-04-25 00:51 52.36003 19.40767 9953 ft 362 kts 169°
2026-04-25 00:51 52.33557 19.41352 9963 ft 360 kts 174°
2026-04-25 00:52 52.31069 19.41961 9940 ft 360 kts 173°
2026-04-25 00:52 52.28589 19.42628 9937 ft 360 kts 173°
2026-04-25 00:52 52.26154 19.43327 9938 ft 359 kts 173°
2026-04-25 00:52 52.23701 19.43412 9925 ft 351 kts 194°
2026-04-25 00:53 52.21439 19.42066 9961 ft 343 kts 216°
2026-04-25 00:53 52.19637 19.39592 9958 ft 334 kts 235°
2026-04-25 00:53 52.18477 19.36429 9948 ft 324 kts 254°
2026-04-25 00:53 52.17999 19.32929 9945 ft 315 kts 271°
2026-04-25 00:54 52.18211 19.29445 9953 ft 309 kts 288°
2026-04-25 00:54 52.19044 19.26237 9960 ft 305 kts 303°
2026-04-25 00:54 52.20387 19.23575 9946 ft 304 kts 319°
2026-04-25 00:54 52.22129 19.21703 9954 ft 305 kts 334°
2026-04-25 00:55 52.24181 19.20703 9941 ft 308 kts 349°
2026-04-25 00:55 52.26278 19.20198 9907 ft 309 kts 348°
2026-04-25 00:55 52.28453 19.20340 9742 ft 318 kts 11°
2026-04-25 00:55 52.30431 19.21954 9622 ft 328 kts 33°
2026-04-25 00:56 52.31936 19.24808 9500 ft 343 kts 56°
2026-04-25 00:56 52.32760 19.28724 9426 ft 388 kts 77°
2026-04-25 00:56 52.32742 19.33225 9393 ft 406 kts 97°
2026-04-25 00:56 52.31842 19.37581 9250 ft 407 kts 116°
2026-04-25 00:57 52.30140 19.41244 9109 ft 404 kts 137°
2026-04-25 00:57 52.27860 19.43775 8969 ft 399 kts 157°
2026-04-25 00:57 52.25251 19.45125 8854 ft 395 kts 167°
2026-04-25 00:57 52.22585 19.46228 8712 ft 394 kts 169°
2026-04-25 00:58 52.19944 19.47224 8410 ft 395 kts 169°
2026-04-25 00:58 52.17262 19.48163 7989 ft 388 kts 171°
2026-04-25 00:58 52.14670 19.49020 7688 ft 382 kts 171°
2026-04-25 00:58 52.12076 19.49839 7385 ft 378 kts 171°
2026-04-25 00:59 52.09551 19.51001 7079 ft 379 kts 162°
2026-04-25 00:59 52.07148 19.52682 6780 ft 378 kts 154°
2026-04-25 00:59 52.04831 19.54651 6479 ft 373 kts 154°
2026-04-25 00:59 52.02570 19.56549 6153 ft 355 kts 155°
2026-04-25 01:00 52.00447 19.58303 5923 ft 336 kts 155°
2026-04-25 01:00 51.98439 19.59950 5945 ft 311 kts 155°
2026-04-25 01:00 51.96556 19.61481 5914 ft 291 kts 156°
2026-04-25 01:00 51.94813 19.62893 5950 ft 271 kts 156°
2026-04-25 01:01 51.93185 19.64206 5863 ft 261 kts 156°
2026-04-25 01:01 51.91541 19.65523 5593 ft 261 kts 157°
2026-04-25 01:01 51.89925 19.66823 5359 ft 263 kts 158°
2026-04-25 01:01 51.88240 19.67959 5127 ft 262 kts 165°
2026-04-25 01:02 51.86509 19.68902 4900 ft 262 kts 165°
2026-04-25 01:02 51.84784 19.69849 4665 ft 261 kts 165°
2026-04-25 01:02 51.83068 19.70795 4432 ft 261 kts 163°
2026-04-25 01:02 51.81345 19.71442 4175 ft 250 kts 187°
2026-04-25 01:03 51.79771 19.70698 3993 ft 230 kts 217°
2026-04-25 01:03 51.78599 19.69177 3907 ft 206 kts 247°
2026-04-25 01:03 51.78134 19.67135 3925 ft 183 kts 255°
2026-04-25 01:03 51.77708 19.65303 3814 ft 170 kts 257°
2026-04-25 01:04 51.77338 19.63544 3584 ft 164 kts 257°
2026-04-25 01:04 51.76965 19.61826 3353 ft 159 kts 258°
2026-04-25 01:04 51.76613 19.60181 3133 ft 154 kts 257°
2026-04-25 01:04 51.76265 19.58573 2948 ft 146 kts 256°
2026-04-25 01:05 51.75935 19.57061 2753 ft 140 kts 257°
2026-04-25 01:05 51.75629 19.55630 2569 ft 133 kts 257°
2026-04-25 01:05 51.75330 19.54254 2390 ft 131 kts 257°
2026-04-25 01:05 51.75026 19.52846 2219 ft 133 kts 257°
2026-04-25 01:06 51.74723 19.51440 2048 ft 134 kts 256°
2026-04-25 01:06 51.74415 19.50012 1864 ft 134 kts 256°
2026-04-25 01:06 51.74112 19.48611 1680 ft 134 kts 255°
2026-04-25 01:06 51.73808 19.47201 1500 ft 134 kts 255°
2026-04-25 01:07 51.73500 19.45779 1314 ft 133 kts 253°
2026-04-25 01:07 51.73185 19.44364 1125 ft 134 kts 251°
2026-04-25 01:07 51.72853 19.42945 935 ft 136 kts 252°
2026-04-25 01:07 51.72553 19.41512 780 ft 136 kts 251°
2026-04-25 01:08 51.72245 19.40072 597 ft 132 kts 251°
2026-04-25 01:08 51.71970 19.38809 567 ft 104 kts 251°
2026-04-25 01:08 51.71787 19.37987 572 ft 53 kts 250°
2026-04-25 01:08 51.71704 19.37549 574 ft 41 kts 250°
2026-04-25 01:09 51.71655 19.37311 569 ft 6 kts 243°
2026-04-25 01:09 51.71645 19.37355 570 ft 14 kts 65°
2026-04-25 01:09 51.71700 19.37565 574 ft 21 kts 70°
2026-04-25 01:09 51.71747 19.37785 574 ft 19 kts 72°
2026-04-25 01:10 51.71793 19.38001 572 ft 21 kts 70°
2026-04-25 01:10 51.71851 19.38269 570 ft 29 kts 71°
2026-04-25 01:10 51.71932 19.38636 568 ft 39 kts 72°
2026-04-25 01:10 51.72032 19.39096 567 ft 48 kts 71°
2026-04-25 01:11 51.72151 19.39639 572 ft 51 kts 71°
2026-04-25 01:11 51.72262 19.40148 586 ft 45 kts 71°
2026-04-25 01:11 51.72343 19.40505 593 ft 19 kts 70°
2026-04-25 01:11 51.72426 19.40576 596 ft 12 kts 342°
2026-04-25 01:12 51.72501 19.40527 597 ft 12 kts 325°
2026-04-25 01:12 51.72582 19.40373 594 ft 20 kts 284°
2026-04-25 01:12 51.72585 19.40246 591 ft 5 kts 293°
2026-04-25 01:12 51.72611 19.40218 590 ft 2 kts 341°
2026-04-25 01:13 51.72621 19.40212 590 ft 0 kts 339°